Starlink 1277

operational
NORAD ID: 45369 Int'l Des: 2020-019 Owner: SPXS Country: US Constellation: starlink
LEOCIRCULARSTARLINK_TYPE

Über Starlink 1277

Beschreibung wird geladen...

Live-Position

3D-Globus wird geladen...

Nächste Überflüge

Höhenverlauf

Altitude vs Time

uPlot chart will show altitude changes over time

Zweizeiliger Elementsatz

1 45369U 20019K 25351.53991023 .00000221 00000-0 33753-4 0 9997
2 45369 53.0528 176.0284 0001461 93.8445 266.2711 15.06396681317343
Epoch: 17. Dez. 2025 • Age: 8 hours

Aktueller Status

Höhe 566.7 km
Geschwindigkeit 7.58 km/s
Subsatellitenpunkt -53.16°S, 47.03°E
Startdatum 18. März 2020
Alter 5.7 years
Typ internet

Technische Details

Klassifizierung Payload
Masse 260.00 kg
Trockenmasse 248.00 kg
Gesamtmasse 260.00 kg
Länge 0.20 m
Durchmesser 2.80 m
Spannweite 9.00 m
Form Box + pan
Hersteller SPXS
Bus-Typ Starlink
Phasenstatus In Orbit
Besitzer/Staat SPXS/US

Große Konstellationen

Loading constellations...